EZS14EZ LSGG-LEVC

Flight info

Callsign EZS14EZ
Flight time 1h 32m
Altitude 37000
Route BALSI DCT RETNO DCT TUPOX DCT MTG DCT DIVKO DCT NILDU DCT NENDA DCT BCN M985 SOPET
Aircraft A320/M-SDE3FGHIRWY/LB1

Departure

Time 2026-05-05 18:05
Airport Geneva International Airport (LSGG)

Arrival

Time 2026-05-05 19:37
Airport Valencia Airport (LEVC)
Time Latitude Longitude Altitude Speed Heading
2026-05-05 17:04 46.22921 6.10404 1400 ft 0 kts 150°
2026-05-05 17:53 46.22924 6.10402 1403 ft 3 kts 150°
2026-05-05 17:53 46.22944 6.10386 1401 ft 2 kts 149°
2026-05-05 17:53 46.22959 6.10365 1402 ft 4 kts 80°
2026-05-05 17:54 46.22947 6.10338 1402 ft 2 kts 45°
2026-05-05 17:54 46.22945 6.10335 1402 ft 0 kts 45°
2026-05-05 17:57 46.22950 6.10342 1402 ft 2 kts 45°
2026-05-05 17:58 46.22971 6.10373 1402 ft 7 kts 45°
2026-05-05 17:58 46.23016 6.10438 1393 ft 11 kts 45°
2026-05-05 17:58 46.23082 6.10536 1393 ft 16 kts 45°
2026-05-05 17:58 46.23170 6.10664 1400 ft 20 kts 45°
2026-05-05 17:59 46.23260 6.10778 1401 ft 16 kts 18°
2026-05-05 17:59 46.23360 6.10852 1404 ft 17 kts 45°
2026-05-05 17:59 46.23447 6.10980 1398 ft 19 kts 45°
2026-05-05 17:59 46.23540 6.11116 1400 ft 17 kts 45°
2026-05-05 18:00 46.23617 6.11142 1400 ft 12 kts 316°
2026-05-05 18:00 46.23674 6.11067 1386 ft 11 kts 332°
2026-05-05 18:00 46.23743 6.11136 1379 ft 16 kts 45°
2026-05-05 18:00 46.23835 6.11269 1374 ft 21 kts 45°
2026-05-05 18:01 46.23943 6.11429 1372 ft 24 kts 46°
2026-05-05 18:01 46.24069 6.11613 1369 ft 27 kts 46°
2026-05-05 18:01 46.24206 6.11814 1363 ft 29 kts 46°
2026-05-05 18:01 46.24348 6.12024 1365 ft 28 kts 45°
2026-05-05 18:02 46.24478 6.12215 1372 ft 26 kts 45°
2026-05-05 18:02 46.24609 6.12407 1370 ft 28 kts 45°
2026-05-05 18:02 46.24752 6.12617 1362 ft 25 kts 46°
2026-05-05 18:02 46.24846 6.12688 1364 ft 9 kts 17°
2026-05-05 18:03 46.24894 6.12709 1365 ft 7 kts 17°
2026-05-05 18:03 46.24952 6.12731 1368 ft 8 kts
2026-05-05 18:03 46.25000 6.12689 1370 ft 6 kts 311°
2026-05-05 18:03 46.24999 6.12650 1372 ft 3 kts 243°
2026-05-05 18:04 46.24989 6.12634 1371 ft 0 kts 229°
2026-05-05 18:04 46.24982 6.12622 1369 ft 9 kts 227°
2026-05-05 18:04 46.24797 6.12351 1372 ft 76 kts 225°
2026-05-05 18:04 46.24266 6.11572 1374 ft 138 kts 225°
2026-05-05 18:05 46.23501 6.10424 1626 ft 166 kts 224°
2026-05-05 18:05 46.22702 6.09228 2362 ft 165 kts 225°
2026-05-05 18:05 46.21897 6.08063 3165 ft 166 kts 225°
2026-05-05 18:05 46.21032 6.06809 3545 ft 186 kts 225°
2026-05-05 18:06 46.20090 6.05413 3960 ft 202 kts 225°
2026-05-05 18:06 46.19419 6.04426 4217 ft 216 kts 226°
2026-05-05 18:06 46.17885 6.02176 4835 ft 249 kts 225°
2026-05-05 18:06 46.16661 6.00396 5841 ft 252 kts 225°
2026-05-05 18:07 46.15411 5.98598 6823 ft 255 kts 225°
2026-05-05 18:07 46.14129 5.96812 7776 ft 259 kts 217°
2026-05-05 18:07 46.12422 5.95955 8630 ft 269 kts 183°
2026-05-05 18:07 46.10560 5.96438 9633 ft 274 kts 169°
2026-05-05 18:08 46.08710 5.96962 10454 ft 280 kts 174°
2026-05-05 18:08 46.06700 5.97344 10820 ft 303 kts 176°
2026-05-05 18:08 46.04550 5.97656 11350 ft 316 kts 177°
2026-05-05 18:08 46.02334 5.97950 12113 ft 322 kts 177°
2026-05-05 18:09 46.00088 5.98257 12929 ft 327 kts 177°
2026-05-05 18:09 45.97808 5.98585 13741 ft 330 kts 176°
2026-05-05 18:09 45.95512 5.98711 14448 ft 332 kts 185°
2026-05-05 18:09 45.93193 5.98559 15169 ft 335 kts 185°
2026-05-05 18:10 45.90856 5.98413 15918 ft 338 kts 185°
2026-05-05 18:10 45.88497 5.98269 16667 ft 341 kts 185°
2026-05-05 18:10 45.86116 5.98128 17397 ft 344 kts 185°
2026-05-05 18:10 45.83703 5.97989 18123 ft 348 kts 184°
2026-05-05 18:11 45.81275 5.97848 18737 ft 351 kts 184°
2026-05-05 18:11 45.78817 5.97703 19347 ft 354 kts 184°
2026-05-05 18:11 45.76343 5.97573 19950 ft 358 kts 184°
2026-05-05 18:11 45.73846 5.97458 20536 ft 361 kts 184°
2026-05-05 18:12 45.71322 5.97350 21108 ft 364 kts 184°
2026-05-05 18:12 45.68777 5.97247 21675 ft 367 kts 184°
2026-05-05 18:12 45.66246 5.97139 22245 ft 370 kts 184°
2026-05-05 18:12 45.63662 5.97007 22794 ft 373 kts 184°
2026-05-05 18:13 45.61054 5.96859 23334 ft 376 kts 184°
2026-05-05 18:13 45.58425 5.96701 23817 ft 379 kts 185°
2026-05-05 18:13 45.55781 5.96541 24300 ft 381 kts 185°
2026-05-05 18:13 45.53122 5.96382 24777 ft 383 kts 185°
2026-05-05 18:14 45.50457 5.96227 25244 ft 384 kts 185°
2026-05-05 18:14 45.47786 5.95998 25693 ft 384 kts 190°
2026-05-05 18:14 45.45165 5.95278 26117 ft 384 kts 195°
2026-05-05 18:14 45.42552 5.94452 26568 ft 385 kts 195°
2026-05-05 18:15 45.39930 5.93625 27018 ft 386 kts 195°
2026-05-05 18:15 45.37302 5.92802 27466 ft 388 kts 195°
2026-05-05 18:15 45.34659 5.91978 27943 ft 389 kts 195°
2026-05-05 18:15 45.32012 5.91157 28374 ft 390 kts 195°
2026-05-05 18:16 45.29353 5.90333 28797 ft 392 kts 195°
2026-05-05 18:16 45.26686 5.89507 29230 ft 393 kts 196°
2026-05-05 18:16 45.24012 5.88678 29652 ft 394 kts 196°
2026-05-05 18:16 45.21324 5.87845 30044 ft 396 kts 196°
2026-05-05 18:17 45.18631 5.87008 30368 ft 398 kts 196°
2026-05-05 18:17 45.15958 5.86177 30681 ft 399 kts 196°
2026-05-05 18:17 45.13240 5.85334 31007 ft 401 kts 197°
2026-05-05 18:17 45.10512 5.84488 31334 ft 402 kts 197°
2026-05-05 18:18 45.07774 5.83640 31728 ft 402 kts 197°
2026-05-05 18:18 45.05047 5.82797 32188 ft 400 kts 197°
2026-05-05 18:18 45.02334 5.81963 32571 ft 398 kts 197°
2026-05-05 18:18 44.99592 5.81121 32972 ft 398 kts 197°
2026-05-05 18:19 44.96928 5.80304 33483 ft 395 kts 197°
2026-05-05 18:19 44.94251 5.79480 33949 ft 393 kts 198°
2026-05-05 18:19 44.91576 5.78656 34314 ft 392 kts 197°
2026-05-05 18:19 44.88911 5.77836 34612 ft 393 kts 197°
2026-05-05 18:20 44.86236 5.77014 34895 ft 393 kts 197°
2026-05-05 18:20 44.83559 5.76193 35152 ft 394 kts 197°
2026-05-05 18:20 44.80876 5.75370 35415 ft 395 kts 197°
2026-05-05 18:20 44.78185 5.74546 35664 ft 396 kts 197°
2026-05-05 18:21 44.75484 5.73720 35913 ft 397 kts 197°
2026-05-05 18:21 44.72780 5.72897 36144 ft 398 kts 196°
2026-05-05 18:21 44.70064 5.72071 36368 ft 399 kts 196°
2026-05-05 18:21 44.67340 5.71241 36608 ft 401 kts 196°
2026-05-05 18:22 44.64615 5.70412 36828 ft 402 kts 196°
2026-05-05 18:22 44.59139 5.68748 36928 ft 402 kts 196°
2026-05-05 18:23 44.53670 5.67093 36922 ft 402 kts 196°
2026-05-05 18:23 44.48240 5.65453 36923 ft 401 kts 196°
2026-05-05 18:24 44.42789 5.63797 36924 ft 401 kts 196°
2026-05-05 18:24 44.37358 5.61994 36927 ft 399 kts 203°
2026-05-05 18:25 44.32206 5.59191 36924 ft 398 kts 204°
2026-05-05 18:25 44.27054 5.56355 36928 ft 398 kts 204°
2026-05-05 18:26 44.21903 5.53534 36920 ft 398 kts 204°
2026-05-05 18:26 44.16754 5.50725 36912 ft 397 kts 204°
2026-05-05 18:27 44.11597 5.47915 36928 ft 397 kts 204°
2026-05-05 18:27 44.06445 5.45117 36929 ft 397 kts 205°
2026-05-05 18:28 43.98751 5.40952 36921 ft 397 kts 204°
2026-05-05 18:28 43.93604 5.38158 36916 ft 397 kts 205°
2026-05-05 18:29 43.88458 5.35374 36919 ft 397 kts 205°
2026-05-05 18:29 43.83312 5.32595 36917 ft 397 kts 205°
2026-05-05 18:30 43.78167 5.29821 36912 ft 397 kts 205°
2026-05-05 18:30 43.73888 5.27517 36917 ft 397 kts 205°
2026-05-05 18:31 43.67913 5.24311 36918 ft 396 kts 205°
2026-05-05 18:31 43.62772 5.21557 36915 ft 396 kts 205°
2026-05-05 18:32 43.58497 5.19273 36921 ft 396 kts 205°
2026-05-05 18:32 43.53358 5.16525 36923 ft 395 kts 205°
2026-05-05 18:33 43.48228 5.13782 36922 ft 395 kts 205°
2026-05-05 18:33 43.43103 5.11060 36923 ft 395 kts 205°
2026-05-05 18:34 43.38068 5.08102 36921 ft 391 kts 213°
2026-05-05 18:34 43.33582 5.03916 36919 ft 389 kts 217°
2026-05-05 18:35 43.29122 4.99708 36914 ft 389 kts 217°
2026-05-05 18:35 43.24652 4.95507 36913 ft 389 kts 217°
2026-05-05 18:36 43.20180 4.91315 36911 ft 389 kts 217°
2026-05-05 18:36 43.15739 4.87151 36911 ft 389 kts 217°
2026-05-05 18:37 43.11269 4.82980 36911 ft 389 kts 217°
2026-05-05 18:37 43.06797 4.78810 36911 ft 389 kts 217°
2026-05-05 18:38 43.02659 4.74109 36911 ft 386 kts 223°
2026-05-05 18:38 42.98638 4.69235 36911 ft 386 kts 223°
2026-05-05 18:39 42.94618 4.64381 36908 ft 386 kts 223°
2026-05-05 18:39 42.90593 4.59531 36910 ft 385 kts 223°
2026-05-05 18:40 42.86571 4.54710 36911 ft 385 kts 223°
2026-05-05 18:40 42.82554 4.49883 36910 ft 385 kts 223°
2026-05-05 18:41 42.78541 4.45058 36905 ft 385 kts 223°
2026-05-05 18:41 42.74526 4.40245 36905 ft 384 kts 223°
2026-05-05 18:42 42.70506 4.35448 36902 ft 384 kts 223°
2026-05-05 18:42 42.66484 4.30660 36898 ft 384 kts 223°
2026-05-05 18:43 42.62465 4.25877 36900 ft 384 kts 223°
2026-05-05 18:43 42.58448 4.21100 36896 ft 384 kts 223°
2026-05-05 18:44 42.54431 4.16330 36895 ft 383 kts 223°
2026-05-05 18:44 42.50442 4.11601 36894 ft 383 kts 223°
2026-05-05 18:45 42.46431 4.06858 36893 ft 383 kts 223°
2026-05-05 18:45 42.42412 4.02127 36890 ft 383 kts 223°
2026-05-05 18:46 42.38396 3.97404 36885 ft 382 kts 223°
2026-05-05 18:46 42.34386 3.92691 36889 ft 382 kts 223°
2026-05-05 18:47 42.30379 3.87975 36888 ft 382 kts 223°
2026-05-05 18:47 42.26409 3.83211 36881 ft 380 kts 228°
2026-05-05 18:48 42.23231 3.77539 36884 ft 379 kts 235°
2026-05-05 18:48 42.20182 3.71729 36886 ft 379 kts 235°
2026-05-05 18:49 42.17120 3.65927 36887 ft 380 kts 234°
2026-05-05 18:49 42.14046 3.60129 36884 ft 380 kts 234°
2026-05-05 18:50 42.10985 3.54365 36881 ft 381 kts 235°
2026-05-05 18:50 42.07905 3.48550 36882 ft 382 kts 235°
2026-05-05 18:51 42.04819 3.42729 36880 ft 382 kts 235°
2026-05-05 18:51 42.01716 3.36910 36881 ft 383 kts 235°
2026-05-05 18:52 41.98606 3.31090 36880 ft 383 kts 235°
2026-05-05 18:52 41.95496 3.25273 36885 ft 384 kts 235°
2026-05-05 18:53 41.92378 3.19453 36886 ft 384 kts 235°
2026-05-05 18:53 41.89255 3.13639 36886 ft 384 kts 235°
2026-05-05 18:54 41.86132 3.07828 36890 ft 384 kts 235°
2026-05-05 18:54 41.83008 3.02025 36892 ft 384 kts 235°
2026-05-05 18:55 41.79902 2.96271 36899 ft 383 kts 235°
2026-05-05 18:55 41.76770 2.90490 36895 ft 383 kts 235°
2026-05-05 18:56 41.73638 2.84714 36896 ft 383 kts 235°
2026-05-05 18:56 41.70505 2.78941 36897 ft 383 kts 235°
2026-05-05 18:57 41.67358 2.73181 36899 ft 383 kts 234°
2026-05-05 18:57 41.64096 2.67540 36901 ft 383 kts 233°
2026-05-05 18:58 41.60794 2.61946 36903 ft 383 kts 233°
2026-05-05 18:58 41.57502 2.56341 36907 ft 383 kts 233°
2026-05-05 18:59 41.54217 2.50719 36907 ft 383 kts 233°
2026-05-05 18:59 41.50936 2.45107 36909 ft 383 kts 233°
2026-05-05 19:00 41.47648 2.39521 36916 ft 383 kts 233°
2026-05-05 19:00 41.44382 2.33962 36920 ft 383 kts 233°
2026-05-05 19:01 41.41097 2.28376 36922 ft 383 kts 233°
2026-05-05 19:01 41.37815 2.22793 36925 ft 382 kts 233°
2026-05-05 19:02 41.34528 2.17221 36930 ft 382 kts 233°
2026-05-05 19:02 41.31236 2.11662 36932 ft 382 kts 233°
2026-05-05 19:03 41.27807 2.06253 36935 ft 383 kts 231°
2026-05-05 19:03 41.24219 2.01031 36935 ft 382 kts 230°
2026-05-05 19:04 41.20625 1.95828 36923 ft 382 kts 230°
2026-05-05 19:04 41.17087 1.90640 36927 ft 381 kts 230°
2026-05-05 19:05 41.13549 1.85408 36929 ft 381 kts 231°
2026-05-05 19:05 41.10010 1.80177 36922 ft 381 kts 230°
2026-05-05 19:06 41.06463 1.74967 36927 ft 381 kts 230°
2026-05-05 19:06 41.02912 1.69767 36919 ft 381 kts 230°
2026-05-05 19:07 40.99355 1.64570 36921 ft 380 kts 230°
2026-05-05 19:07 40.95809 1.59384 36911 ft 380 kts 230°
2026-05-05 19:08 40.92257 1.54196 36913 ft 380 kts 230°
2026-05-05 19:08 40.88698 1.49014 36907 ft 381 kts 230°
2026-05-05 19:09 40.85133 1.43832 36915 ft 381 kts 230°
2026-05-05 19:09 40.81563 1.38647 36917 ft 381 kts 230°
2026-05-05 19:10 40.77993 1.33474 36916 ft 381 kts 230°
2026-05-05 19:10 40.74416 1.28300 36911 ft 381 kts 230°
2026-05-05 19:11 40.70834 1.23137 36911 ft 381 kts 230°
2026-05-05 19:11 40.67254 1.17973 36917 ft 382 kts 230°
2026-05-05 19:12 40.63697 1.12846 36923 ft 381 kts 230°
2026-05-05 19:12 40.60121 1.07695 36924 ft 381 kts 230°
2026-05-05 19:13 40.56532 1.02548 36925 ft 382 kts 230°
2026-05-05 19:13 40.54736 0.99973 36763 ft 383 kts 230°
2026-05-05 19:13 40.52937 0.97398 36503 ft 381 kts 230°
2026-05-05 19:14 40.51145 0.94837 36252 ft 380 kts 230°
2026-05-05 19:14 40.49351 0.92279 35993 ft 380 kts 230°
2026-05-05 19:14 40.47557 0.89724 35358 ft 382 kts 230°
2026-05-05 19:14 40.45751 0.87146 34477 ft 386 kts 230°
2026-05-05 19:15 40.43925 0.84538 33589 ft 389 kts 230°
2026-05-05 19:15 40.42108 0.81949 33009 ft 383 kts 230°
2026-05-05 19:15 40.40315 0.79402 32402 ft 378 kts 231°
2026-05-05 19:15 40.38540 0.76884 31795 ft 373 kts 231°
2026-05-05 19:16 40.36788 0.74399 31208 ft 369 kts 231°
2026-05-05 19:16 40.35058 0.71947 30627 ft 365 kts 231°
2026-05-05 19:16 40.33341 0.69520 30050 ft 361 kts 231°
2026-05-05 19:16 40.31642 0.67115 29428 ft 357 kts 231°
2026-05-05 19:17 40.29968 0.64747 28874 ft 352 kts 231°
2026-05-05 19:17 40.28316 0.62411 28325 ft 347 kts 231°
2026-05-05 19:17 40.26707 0.60137 27800 ft 342 kts 231°
2026-05-05 19:17 40.25103 0.57871 27281 ft 337 kts 232°
2026-05-05 19:18 40.23520 0.55636 26788 ft 332 kts 232°
2026-05-05 19:18 40.21959 0.53438 26302 ft 327 kts 232°
2026-05-05 19:18 40.20421 0.51271 25836 ft 323 kts 232°
2026-05-05 19:18 40.18906 0.49137 25380 ft 318 kts 232°
2026-05-05 19:19 40.17911 0.47739 25084 ft 316 kts 232°
2026-05-05 19:19 40.16426 0.45652 24645 ft 312 kts 232°
2026-05-05 19:19 40.14960 0.43590 24207 ft 308 kts 232°
2026-05-05 19:19 40.13510 0.41549 23758 ft 305 kts 232°
2026-05-05 19:20 40.12068 0.39523 23280 ft 303 kts 232°
2026-05-05 19:20 40.10640 0.37524 22805 ft 299 kts 232°
2026-05-05 19:20 40.09227 0.35549 22359 ft 296 kts 232°
2026-05-05 19:20 40.07825 0.33592 21914 ft 293 kts 232°
2026-05-05 19:21 40.06437 0.31650 21468 ft 291 kts 232°
2026-05-05 19:21 40.05062 0.29725 21027 ft 289 kts 231°
2026-05-05 19:21 40.03692 0.27810 20576 ft 288 kts 231°
2026-05-05 19:21 40.02330 0.25908 20135 ft 287 kts 231°
2026-05-05 19:22 40.00968 0.24010 19698 ft 286 kts 231°
2026-05-05 19:22 39.99612 0.22117 19234 ft 286 kts 231°
2026-05-05 19:22 39.98258 0.20224 18808 ft 286 kts 231°
2026-05-05 19:22 39.96903 0.18330 18371 ft 286 kts 230°
2026-05-05 19:23 39.95543 0.16430 17887 ft 286 kts 230°
2026-05-05 19:23 39.94187 0.14538 17434 ft 285 kts 230°
2026-05-05 19:23 39.92832 0.12652 17004 ft 284 kts 230°
2026-05-05 19:23 39.91500 0.10802 16596 ft 283 kts 230°
2026-05-05 19:24 39.90149 0.08929 16168 ft 283 kts 230°
2026-05-05 19:24 39.88798 0.07058 15753 ft 283 kts 230°
2026-05-05 19:24 39.87450 0.05188 15344 ft 283 kts 230°
2026-05-05 19:24 39.86101 0.03316 14923 ft 284 kts 230°
2026-05-05 19:25 39.84742 0.01442 14513 ft 285 kts 227°
2026-05-05 19:25 39.83177 -0.00170 14095 ft 290 kts 215°
2026-05-05 19:25 39.81327 -0.01286 13665 ft 296 kts 202°
2026-05-05 19:25 39.79350 -0.02066 13186 ft 298 kts 201°
2026-05-05 19:26 39.77367 -0.02848 12744 ft 297 kts 201°
2026-05-05 19:26 39.75388 -0.03629 12299 ft 297 kts 201°
2026-05-05 19:26 39.73407 -0.04411 11870 ft 297 kts 201°
2026-05-05 19:26 39.71430 -0.05191 11434 ft 297 kts 201°
2026-05-05 19:27 39.69489 -0.05954 11096 ft 294 kts 201°
2026-05-05 19:27 39.67533 -0.06723 10666 ft 293 kts 201°
2026-05-05 19:27 39.65583 -0.07495 10245 ft 293 kts 201°
2026-05-05 19:27 39.63660 -0.08253 10059 ft 284 kts 201°
2026-05-05 19:28 39.61789 -0.08992 9886 ft 280 kts 201°
2026-05-05 19:28 39.59935 -0.09748 9630 ft 280 kts 201°
2026-05-05 19:28 39.58079 -0.10518 9161 ft 280 kts 202°
2026-05-05 19:28 39.56212 -0.11298 8654 ft 283 kts 202°
2026-05-05 19:29 39.54352 -0.12074 8218 ft 282 kts 201°
2026-05-05 19:29 39.52494 -0.12846 7838 ft 279 kts 201°
2026-05-05 19:29 39.51876 -0.13101 7683 ft 277 kts 201°
2026-05-05 19:29 39.50316 -0.13746 6737 ft 286 kts 201°
2026-05-05 19:30 39.48443 -0.14517 6175 ft 278 kts 201°
2026-05-05 19:30 39.46617 -0.15266 5471 ft 274 kts 201°
2026-05-05 19:30 39.44801 -0.16013 4728 ft 273 kts 201°
2026-05-05 19:30 39.43034 -0.16735 4457 ft 254 kts 200°
2026-05-05 19:31 39.41400 -0.17398 4373 ft 240 kts 201°
2026-05-05 19:31 39.39856 -0.18039 4275 ft 226 kts 205°
2026-05-05 19:31 39.38694 -0.19216 4167 ft 207 kts 245°
2026-05-05 19:31 39.38477 -0.20957 4086 ft 194 kts 283°
2026-05-05 19:32 39.38988 -0.22489 4008 ft 186 kts 298°
2026-05-05 19:32 39.39598 -0.23951 3925 ft 184 kts 298°
2026-05-05 19:32 39.40195 -0.25405 3830 ft 183 kts 298°
2026-05-05 19:32 39.40783 -0.26867 3679 ft 185 kts 297°
2026-05-05 19:33 39.41365 -0.28376 3336 ft 187 kts 297°
2026-05-05 19:33 39.41941 -0.29878 3056 ft 185 kts 297°
2026-05-05 19:33 39.42499 -0.31334 2833 ft 175 kts 297°
2026-05-05 19:33 39.43019 -0.32704 2568 ft 166 kts 298°
2026-05-05 19:34 39.43514 -0.34004 2319 ft 156 kts 299°
2026-05-05 19:34 39.43977 -0.35204 2182 ft 145 kts 299°
2026-05-05 19:34 39.44421 -0.36356 1975 ft 143 kts 300°
2026-05-05 19:35 39.45310 -0.38673 1547 ft 143 kts 300°
2026-05-05 19:35 39.45747 -0.39815 1304 ft 141 kts 302°
2026-05-05 19:35 39.46178 -0.40942 1098 ft 139 kts 303°
2026-05-05 19:35 39.46611 -0.42062 961 ft 141 kts 302°
2026-05-05 19:36 39.47046 -0.43214 823 ft 143 kts 303°
2026-05-05 19:36 39.47486 -0.44358 664 ft 140 kts 302°
2026-05-05 19:36 39.47923 -0.45499 458 ft 144 kts 301°
2026-05-05 19:36 39.48358 -0.46666 279 ft 143 kts 302°
2026-05-05 19:37 39.48782 -0.47751 217 ft 119 kts 296°
2026-05-05 19:37 39.49065 -0.48513 214 ft 69 kts 296°
2026-05-05 19:37 39.49214 -0.48902 216 ft 39 kts 297°
2026-05-05 19:37 39.49346 -0.49180 210 ft 34 kts 317°
2026-05-05 19:38 39.49478 -0.49304 209 ft 11 kts 325°
2026-05-05 19:38 39.49544 -0.49294 215 ft 11 kts 56°
2026-05-05 19:38 39.49520 -0.49177 213 ft 19 kts 116°
2026-05-05 19:38 39.49456 -0.49019 211 ft 21 kts 120°
2026-05-05 19:39 39.49391 -0.48846 209 ft 22 kts 115°
2026-05-05 19:39 39.49323 -0.48656 212 ft 24 kts 114°
2026-05-05 19:39 39.49245 -0.48456 214 ft 26 kts 115°
2026-05-05 19:39 39.49165 -0.48243 211 ft 27 kts 116°
2026-05-05 19:40 39.49082 -0.48022 209 ft 25 kts 117°
2026-05-05 19:40 39.49027 -0.47862 212 ft 16 kts 89°
2026-05-05 19:40 39.49053 -0.47711 212 ft 18 kts 78°
2026-05-05 19:40 39.49034 -0.47568 213 ft 17 kts 117°
2026-05-05 19:41 39.48978 -0.47423 209 ft 18 kts 117°
2026-05-05 19:41 39.48946 -0.47337 214 ft 0 kts 116°
2026-05-05 19:41 39.48953 -0.47316 214 ft 4 kts 42°
2026-05-05 19:42 39.48993 -0.47296 215 ft 8 kts 20°
2026-05-05 19:42 39.49016 -0.47286 211 ft 3 kts 16°
2026-05-05 19:42 39.49023 -0.47283 209 ft 0 kts 17°
2026-05-05 19:55 39.49024 -0.47283 209 ft 0 kts 17°